Time,TemperatureF,DewpointF,PressureIn,WindDirection,WindDirectionDegrees,WindSpeedMPH,WindSpeedGustMPH,Humidity,HourlyPrecipIn,Conditions,Clouds,dailyrainin,SoftwareType,DateUTC
2013-03-11 00:02:00,38.0,30.0,-100.00,NW,305,2.0,5.0,72,-99.99,,,-99.99,,2013-03-11 07:02:00,
2013-03-11 00:10:00,38.0,30.0,-100.00,NW,310,5.0,7.0,72,-99.99,,,-99.99,,2013-03-11 07:10:00,
2013-03-11 01:02:00,38.0,30.0,-100.00,NW,310,5.0,7.0,72,-99.99,,,-99.99,,2013-03-11 08:02:00,
2013-03-11 02:02:00,37.0,30.0,-100.00,North,360,3.0,9.0,75,-99.99,,,-99.99,,2013-03-11 09:02:00,
2013-03-11 02:10:00,36.0,30.0,-100.00,North,350,5.0,7.0,78,-99.99,,,-99.99,,2013-03-11 09:10:00,
2013-03-11 02:12:00,37.0,30.0,-100.00,North,360,3.0,9.0,75,-99.99,,,-99.99,,2013-03-11 09:12:00,
2013-03-11 03:02:00,36.0,30.0,-100.00,North,350,5.0,7.0,78,-99.99,,,-99.99,,2013-03-11 10:02:00,
2013-03-11 04:02:00,36.0,30.0,-100.00,NNW,340,5.0,10.0,78,-99.99,,,-99.99,,2013-03-11 11:02:00,
2013-03-11 04:12:00,36.0,30.0,-100.00,NNW,340,5.0,10.0,78,-99.99,,,-99.99,,2013-03-11 11:12:00,
2013-03-11 05:02:00,33.0,28.0,-100.00,North,360,5.0,6.0,81,-99.99,,,-99.99,,2013-03-11 12:02:00,
2013-03-11 05:10:00,32.0,28.0,-100.00,North,355,3.0,6.0,84,-99.99,,,-99.99,,2013-03-11 12:10:00,
2013-03-11 06:02:00,32.0,28.0,-100.00,North,355,3.0,6.0,84,-99.99,,,-99.99,,2013-03-11 13:02:00,
2013-03-11 07:02:00,32.0,28.0,-100.00,NNW,340,5.0,10.0,84,-99.99,,,-99.99,,2013-03-11 14:02:00,
2013-03-11 07:10:00,31.0,28.0,-100.00,North,350,6.0,9.0,88,-99.99,,,-99.99,,2013-03-11 14:10:00,
2013-03-11 07:12:00,32.0,28.0,-100.00,NNW,340,5.0,10.0,84,-99.99,,,-99.99,,2013-03-11 14:12:00,
2013-03-11 09:02:00,32.0,28.0,-100.00,North,360,5.0,9.0,84,-99.99,,,-99.99,,2013-03-11 16:02:00,
2013-03-11 09:12:00,32.0,28.0,-100.00,North,360,5.0,9.0,84,-99.99,,,-99.99,,2013-03-11 16:12:00,
2013-03-11 09:20:00,36.0,29.0,-100.00,North,360,5.0,8.0,75,-99.99,,,-99.99,,2013-03-11 16:20:00,
2013-03-11 10:10:00,39.0,29.0,-100.00,North,360,2.0,6.0,67,-99.99,,,-99.99,,2013-03-11 17:10:00,
2013-03-11 11:02:00,39.0,29.0,-100.00,North,360,2.0,6.0,67,-99.99,,,-99.99,,2013-03-11 18:02:00,
2013-03-11 12:02:00,43.0,28.0,-100.00,SE,140,6.0,7.0,55,-99.99,,,-99.99,,2013-03-11 19:02:00,
2013-03-11 12:12:00,43.0,28.0,-100.00,SE,140,6.0,7.0,55,-99.99,,,-99.99,,2013-03-11 19:12:00,
2013-03-11 13:02:00,48.0,27.0,-100.00,ESE,115,3.0,7.0,43,-99.99,,,-99.99,,2013-03-11 20:02:00,
2013-03-11 13:10:00,50.0,25.0,-100.00,SSE,150,6.0,10.0,37,-99.99,,,-99.99,,2013-03-11 20:10:00,
2013-03-11 14:02:00,50.0,25.0,-100.00,SSE,150,6.0,10.0,37,-99.99,,,-99.99,,2013-03-11 21:02:00,
2013-03-11 15:02:00,53.0,22.0,-100.00,SSE,150,7.0,12.0,29,-99.99,,,-99.99,,2013-03-11 22:02:00,
2013-03-11 15:10:00,53.0,22.0,-100.00,SE,140,6.0,10.0,29,-99.99,,,-99.99,,2013-03-11 22:10:00,
2013-03-11 15:12:00,53.0,22.0,-100.00,SSE,150,7.0,12.0,29,-99.99,,,-99.99,,2013-03-11 22:12:00,
2013-03-11 16:02:00,53.0,22.0,-100.00,SE,140,6.0,10.0,29,-99.99,,,-99.99,,2013-03-11 23:02:00,
2013-03-11 17:02:00,53.0,22.0,-100.00,SSE,160,5.0,7.0,29,-99.99,,,-99.99,,2013-03-12 00:02:00,
2013-03-11 17:12:00,53.0,22.0,-100.00,SSE,160,5.0,7.0,29,-99.99,,,-99.99,,2013-03-12 00:12:00,
2013-03-11 18:02:00,53.0,22.0,-100.00,SE,130,6.0,9.0,29,-99.99,,,-99.99,,2013-03-12 01:02:00,
2013-03-11 18:10:00,52.0,23.0,-100.00,SE,145,5.0,7.0,31,-99.99,,,-99.99,,2013-03-12 01:10:00,
2013-03-11 19:02:00,52.0,23.0,-100.00,SE,145,5.0,7.0,31,-99.99,,,-99.99,,2013-03-12 02:02:00,
2013-03-11 20:02:00,50.0,23.0,-100.00,SSE,165,5.0,6.0,34,-99.99,,,-99.99,,2013-03-12 03:02:00,
2013-03-11 20:10:00,47.0,24.0,-100.00,NW,320,0.0,1.0,40,-99.99,,,-99.99,,2013-03-12 03:10:00,
2013-03-11 20:12:00,50.0,23.0,-100.00,SSE,165,5.0,6.0,34,-99.99,,,-99.99,,2013-03-12 03:12:00,
2013-03-11 21:02:00,47.0,24.0,-100.00,NW,320,0.0,1.0,40,-99.99,,,-99.99,,2013-03-12 04:02:00,
2013-03-11 22:02:00,46.0,27.0,-100.00,NE,55,1.0,2.0,47,-99.99,,,-99.99,,2013-03-12 05:02:00,
2013-03-11 22:12:00,46.0,27.0,-100.00,NE,55,1.0,2.0,47,-99.99,,,-99.99,,2013-03-12 05:12:00,
2013-03-11 22:20:00,46.0,29.0,-100.00,North,5,2.0,5.0,51,-99.99,,,-99.99,,2013-03-12 05:20:00,
2013-03-11 23:02:00,46.0,29.0,-100.00,North,5,2.0,5.0,51,-99.99,,,-99.99,,2013-03-12 06:02:00,
2013-03-11 23:10:00,44.0,32.0,-100.00,North,360,3.0,6.0,62,-99.99,,,-99.99,,2013-03-12 06:10:00,
2013-03-11 23:12:00,46.0,29.0,-100.00,North,5,2.0,5.0,51,-99.99,,,-99.99,,2013-03-12 06:12:00,